CAPE
0 0 0 0 0 0 0 0 0 0 0 0 0 0 0 0 0 0 0 0 0 0 0 0 0 0 0 0 0 0 0 0 0 0 0 0 0 0 0 0 0 0 0 0
0 0 0 0 0 0 0 0 0 0 0 0 0 0 0 0 0 0 0 0 0 0 0 0 0 0 0 0 0 0 0 0 0 0 0 0 0 0 0 0 0 0 0 0
0 0 0 0 0 0 0 0 0 0 0 0 0 0 0 0 0 0 0 0 0 0 0 0 0 0 0 0 0 0 0 0 0 0 0 0 0 0 0 0 0 0 0 0
0 0 0 0 0 0 0 0 0 0 0 0 0 0 0 0 0 0 0 0 0 0 0 0 0 0 0 0 0 0 0 0 0 0 0 0 0 0 0 0 0 0 0 0
0 0 0 0 0 0 0 0 0 0 0 0 0 0 0 0 0 0 0 0 0 0 0 0 0 0 0 0 0 0 0 0 0 0 0 0 0 0 0 0 0 0 0 0
0 0 0 0 0 0 0 0 0 0 0 0 0 0 0 0 0 0 0 0 0 0 0 0 0 0 0 0 0 0 0 0 0 0 0 0 0 0 0 0 0 0 0 0
0 0 0 0 0 0 0 0 0 0 0 0 0 0 0 0 0 0 0 0 0 0 0 0 0 0 0 0 0 0 0 0 0 0 0 0 0 0 0 0 0 0 0 0
0 0 0 0 0 0 0 0 0 0 0 0 0 0 0 0 0 0 0 0 0 0 0 0 0 0 0 0 0 0 0 0 0 0 0 0 0 0 0 0 0 0 0 0
0 0 0 0 0 0 0 0 0 0 0 0 0 0 0 0 0 0 0 0 0 0 0 0 0 0 0 0 0 0 0 0 0 0 0 0 0 0 0 0 0 0 0 0
0 0 0 0 0 0 0 0 0 0 0 0 0 0 0 0 0 0 0 0 0 0 0 0 0 0 0 0 0 0 0 0 0 0 0 0 0 0 0 0 0 0 0 0
0 0 0 0 0 0 0 0 0 0 0 0 0 0 0 0 0 0 0 0 0 0 0 0 0 0 0 0 0 0 0 0 0 0 0 0 0 0 0 0 0 0 0 0
0 0 0 0 0 0 0 0 0 0 0 0 0 0 0 0 0 0 0 0 0 0 0 0 0 0 0 0 0 0 0 0 0 0 0 0 0 0 0 0 0 0 1 3
0 0 0 0 0 0 0 0 0 0 0 0 0 0 0 0 0 0 0 0 0 0 0 0 0 0 0 0 0 0 0 0 0 0 0 0 0 0 0 0 0 0 0 1
0 0 0 0 0 0 0 0 0 0 0 0 0 0 0 0 0 0 0 0 0 0 0 0 0 0 0 0 0 0 0 0 0 0 0 0 0 0 0 0 0 0 0 0
0 0 0 0 0 0 0 0 0 0 0 0 0 0 0 0 0 0 0 0 0 0 0 0 0 0 0 0 0 0 0 0 0 0 0 0 0 0 0 0 0 0 0 0
0 0 0 0 0 0 0 0 0 0 0 0 0 0 0 0 0 0 0 0 0 0 0 0 0 0 0 0 0 0 0 0 0 0 0 0 0 0 0 0 0 0 0 0
0 0 0 0 0 0 0 0 0 0 0 0 0 0 0 0 0 0 0 0 0 0 0 0 0 0 0 0 0 0 0 0 0 0 0 0 0 0 0 0 0 0 1 0
0 0 0 0 0 0 0 0 0 0 0 0 0 0 0 0 0 0 0 0 0 0 0 0 0 0 0 0 0 0 0 0 0 0 0 0 0 0 0 0 0 0 0 0
0 0 0 0 0 0 0 0 0 0 0 0 0 0 0 0 0 0 0 0 0 0 0 0 0 0 0 0 0 0 0 0 0 0 0 0 0 0 0 0 0 0 0 0
0 0 0 0 0 0 0 0 0 0 0 0 0 0 0 0 0 0 0 0 0 0 0 0 0 0 0 0 0 0 0 0 0 0 0 0 0 0 0 0 0 0 0 0
0 0 0 0 0 0 0 0 0 0 0 0 0 0 0 0 0 0 0 0 0 0 0 0 0 0 0 0 0 0 0 0 0 0 0 0 0 0 0 0 0 0 0 0
0 0 0 0 0 0 0 0 0 0 0 0 0 0 0 0 0 0 0 0 0 0 0 0 0 0 0 0 0 0 0 0 0 0 0 0 0 0 0 0 0 0 0 0
0 0 0 0 0 0 0 0 0 0 0 0 0 0 0 0 0 0 0 0 0 0 0 0 0 0 0 0 0 0 0 0 0 0 0 0 0 0 0 0 0 0 0 0
0 0 0 0 0 0 0 0 0 0 0 0 0 0 0 0 0 0 0 0 0 0 0 0 0 0 0 0 0 0 0 0 0 0 0 0 0 0 0 0 0 0 0 0
0 0 0 0 0 0 0 0 0 0 0 0 0 0 0 0 0 0 0 0 0 0 0 0 0 0 0 0 0 0 0 0 0 0 0 0 0 0 0 0 0 0 0 0
0 0 0 0 0 0 0 0 0 0 0 0 0 0 0 0 0 0 0 0 0 0 0 0 0 0 0 0 0 0 0 0 0 0 0 0 0 0 0 0 0 0 0 0
0 0 0 0 0 0 0 0 0 0 0 0 0 0 0 0 0 0 0 0 0 0 0 0 0 0 0 0 0 0 0 0 0 0 0 0 0 0 0 0 0 0 0 0
CIN
-0 -0 -0 -0 -0 -0 -0 -0 -0 -0 -0 -0 -0 -0 -0 -0 -0 -0 -0 -0 -0 -0 -0 -0 -0 -0 -0 -0 -0 -0 -0 -0 -0 -0 -0 -0 -0 -0 -0 -0 -0 -0 -0 -0
-0 -0 -0 -0 -0 -0 -0 -0 -0 -0 -0 -0 -0 -0 -0 -0 -0 -0 -0 -0 -0 -0 -0 -0 -0 -0 -0 -0 -0 -0 -0 -0 -0 -0 -0 -0 -0 -0 -0 -0 -0 -0 -0 -0
-0 -0 -0 -0 -0 -0 -0 -0 -0 -0 -0 -0 -0 -0 -0 -0 -0 -0 -0 -0 -0 -0 -0 -0 -0 -0 -0 -0 -0 -0 -0 -0 -0 -0 -0 -0 -0 -0 -0 -0 -0 -0 -0 -0
-0 -0 -0 -0 -0 -0 -0 -0 -0 -0 -0 -0 -0 -0 -0 -0 -0 -0 -0 -0 -0 -0 -0 -0 -0 -0 -0 -0 -0 -0 -0 -0 -0 -0 -0 -0 -0 -0 -0 -0 -0 -0 -0 -0
-0 -0 -0 -0 -0 -0 -0 -0 -0 -0 -0 -0 -0 -0 -0 -0 -0 -0 -0 -0 -0 -0 -0 -0 -0 -0 -0 -0 -0 -0 -0 -0 -0 -0 -0 -0 -0 -0 -0 -0 -0 -0 -0 -0
-0 -0 -0 -0 -0 -0 -0 -0 -0 -0 -0 -0 -0 -0 -0 -0 -0 -0 -0 -0 -0 -0 -0 -0 -0 -0 -0 -0 -0 -0 -0 -0 -0 -0 -0 -0 -0 -0 -0 -0 -0 -0 -0 -0
-0 -0 -0 -0 -0 -0 -0 -0 -0 -0 -0 -0 -0 -0 -0 -0 -0 -0 -0 -0 -0 -0 -0 -0 -0 -0 -0 -0 -0 -0 -0 -0 -0 -0 -0 -0 -0 -0 -0 -0 -0 -0 -0 -0
-0 -0 -0 -0 -0 -0 -0 -0 -0 -0 -0 -0 -0 -0 -0 -0 -0 -0 -0 -0 -0 -0 -0 -0 -0 -0 -0 -0 -0 -0 -0 -0 -0 -0 -0 -0 -0 -0 -0 -0 -0 -0 -0 -0
-0 -0 -0 -0 -0 -0 -0 -0 -0 -0 -0 -0 -0 -0 -0 -0 -0 -0 -0 -0 -0 -0 -0 -0 -0 -0 -0 -0 -0 -0 -0 -0 -0 -0 -0 -0 -0 -0 -0 -0 -0 -0 -0 -0
-0 -0 -0 -0 -0 -0 -0 -0 -0 -0 -0 -0 -0 -0 -0 -0 -0 -0 -0 -0 -0 -0 -0 -0 -0 -0 -0 -0 -0 -0 -0 -0 -0 -0 -0 -0 -0 -0 -0 -0 -0 -0 -0 -0
-0 -0 -0 -0 -0 -0 -0 -0 -0 -0 -0 -0 -0 -0 -0 -0 -0 -0 -0 -0 -0 -0 -0 -0 -0 -0 -0 -0 -0 -0 -0 -0 -0 -0 -0 -0 -0 -0 -0 -0 -0 -0 -0 -0
-0 -0 -0 -0 -0 -0 -0 -0 -0 -0 -0 -0 -0 -0 -0 -0 -0 -0 -0 -0 -0 -0 -0 -0 -0 -0 -0 -0 -0 -0 -0 -0 -0 -0 -0 -0 -0 -0 -0 -0 -0 -0 -0 -1
-0 -0 -0 -0 -0 -0 -0 -0 -0 -0 -0 -0 -0 -0 -0 -0 -0 -0 -0 -0 -0 -0 -0 -0 -0 -0 -0 -0 -0 -0 -0 -0 -0 -0 -0 -0 -0 -0 -0 -0 -0 -0 -0 -1
-0 -0 -0 -0 -0 -0 -0 -0 -0 -0 -0 -0 -0 -0 -0 -0 -0 -0 -0 -0 -0 -0 -0 -0 -0 -0 -0 -0 -0 -0 -0 -0 -0 -0 -0 -0 -0 -0 -0 -0 -0 -0 -0 -0
-0 -0 -0 -0 -0 -0 -0 -0 -0 -0 -0 -0 -0 -0 -0 -0 -0 -0 -0 -0 -0 -0 -0 -0 -0 -0 -0 -0 -0 -0 -0 -0 -0 -0 -0 -0 -0 -0 -0 -0 -0 -0 -0 -0
-0 -0 -0 -0 -0 -0 -0 -0 -0 -0 -0 -0 -0 -0 -0 -0 -0 -0 -0 -0 -0 -0 -0 -0 -0 -0 -0 -0 -0 -0 -0 -0 -0 -0 -0 -0 -0 -0 -0 -0 -0 -0 -0 -0
-0 -0 -0 -0 -0 -0 -0 -0 -0 -0 -0 -0 -0 -0 -0 -0 -0 -0 -0 -0 -0 -0 -0 -0 -0 -0 -0 -0 -0 -0 -0 -0 -0 -0 -0 -0 -0 -0 -0 -0 -0 -0 -0 -0
-0 -0 -0 -0 -0 -0 -0 -0 -0 -0 -0 -0 -0 -0 -0 -0 -0 -0 -0 -0 -0 -0 -0 -0 -0 -0 -0 -0 -0 -0 -0 -0 -0 -0 -0 -0 -0 -0 -0 -0 -0 -0 -1 -0
-0 -0 -0 -0 -0 -0 -0 -0 -0 -0 -0 -0 -0 -0 -0 -0 -0 -0 -0 -0 -0 -0 -0 -0 -0 -0 -0 -0 -0 -0 -0 -0 -0 -0 -0 -0 -0 -0 -0 -0 -0 -0 -0 -0
-0 -0 -0 -0 -0 -0 -0 -0 -0 -0 -0 -0 -0 -0 -0 -0 -0 -0 -0 -0 -0 -0 -0 -0 -0 -0 -0 -0 -0 -0 -0 -0 -0 -0 -0 -0 -0 -0 -0 -0 -0 -0 -0 -0
-0 -0 -0 -0 -0 -0 -0 -0 -0 -0 -0 -0 -0 -0 -0 -0 -0 -0 -0 -0 -0 -0 -0 -0 -0 -0 -0 -0 -0 -0 -0 -0 -0 -0 -0 -0 -0 -0 -0 -0 -0 -0 -0 -0
-0 -0 -0 -0 -0 -0 -0 -0 -0 -0 -0 -0 -0 -0 -0 -0 -0 -0 -0 -0 -0 -0 -0 -0 -0 -0 -0 -0 -0 -0 -0 -0 -0 -0 -0 -0 -0 -0 -0 -0 -0 -0 -0 -0
-0 -0 -0 -0 -0 -0 -0 -0 -0 -0 -0 -0 -0 -0 -0 -0 -0 -0 -0 -0 -0 -0 -0 -0 -0 -0 -0 -0 -0 -0 -0 -0 -0 -0 -0 -0 -0 -0 -1 -0 -0 -0 -0 -0
-0 -0 -0 -0 -0 -0 -0 -0 -0 -0 -0 -0 -0 -0 -0 -0 -0 -0 -0 -0 -0 -0 -0 -0 -0 -0 -0 -0 -0 -0 -0 -0 -0 -0 -0 -0 -0 -0 -0 -0 -0 -0 -0 -0
-0 -0 -0 -0 -0 -0 -0 -0 -0 -0 -0 -0 -0 -0 -0 -0 -0 -0 -0 -0 -0 -0 -0 -0 -0 -0 -0 -0 -0 -0 -0 -0 -0 -0 -0 -0 -0 -0 -0 -0 -0 -0 -0 -0
-0 -0 -0 -0 -0 -0 -0 -0 -0 -0 -0 -0 -0 -0 -0 -0 -0 -0 -0 -0 -0 -0 -0 -0 -0 -0 -0 -0 -0 -0 -0 -0 -0 -0 -0 -0 -0 -0 -0 -0 -0 -0 -0 -0
-0 -0 -0 -0 -0 -0 -0 -0 -0 -0 -0 -0 -0 -0 -0 -0 -0 -0 -0 -0 -0 -0 -0 -0 -0 -0 -0 -0 -0 -0 -0 -0 -0 -0 -0 -0 -0 -0 -0 -0 -0 -0 -0 -0
Wind_Speed
4 1 3 3 3 9 17 15 16 16 16 6 14 19 20 22 24 24 23 20 17 16 15 15 15 15 15 15 15 15 15 15 15 16 16 17 18 19 19 20 21 21 23 24
7 12 12 3 8 11 13 15 16 16 15 14 16 19 20 20 21 20 19 18 17 16 15 15 15 15 15 15 15 15 15 16 16 17 18 19 19 20 21 23 24 25 26 27
12 11 11 12 10 11 13 15 15 15 16 15 16 16 17 18 17 17 16 16 15 15 16 15 15 14 14 14 15 16 17 17 18 19 20 20 21 22 24 25 26 27 27 27
11 14 11 12 13 12 12 13 13 15 15 14 14 14 14 15 15 15 15 14 14 14 15 15 15 15 15 15 16 17 18 18 19 20 21 22 23 25 26 26 27 28 27 27
12 12 8 8 9 10 10 9 11 13 14 15 15 15 14 12 12 13 13 13 13 13 14 15 15 14 15 17 17 18 19 20 20 21 23 24 26 26 26 27 28 26 26 25
13 12 12 11 11 13 14 7 9 11 12 12 13 15 15 13 10 10 11 12 12 13 14 14 15 15 16 17 18 20 21 22 23 24 25 26 26 26 27 27 26 24 25 24
7 11 10 3 10 12 10 13 9 10 10 10 10 12 16 12 10 10 10 11 12 13 13 14 14 15 17 18 20 22 23 25 26 25 25 26 26 27 27 26 25 25 27 26
11 11 11 7 9 8 12 12 10 10 9 9 11 13 11 10 9 9 10 11 12 13 14 14 14 15 18 20 22 23 25 26 26 25 26 27 28 28 26 25 26 28 30 31
9 12 12 9 9 12 10 11 11 11 11 10 10 9 8 8 7 7 8 10 11 13 14 15 16 17 19 21 22 24 25 26 25 26 28 29 29 27 26 26 27 32 33 35
19 14 10 10 9 12 10 9 11 12 11 8 8 6 6 6 6 6 7 8 10 12 14 15 16 19 20 21 23 24 25 25 26 28 29 29 28 26 27 27 31 34 36 36
19 17 15 9 7 6 10 12 12 13 11 7 6 4 3 3 3 5 6 7 8 10 12 14 16 19 21 22 23 24 24 25 27 28 29 30 29 26 26 27 30 36 35 33
16 15 9 10 12 12 10 12 11 10 11 9 4 3 1 2 2 4 4 5 7 9 11 13 16 19 21 23 23 22 24 25 26 28 29 30 30 27 25 27 32 34 35 35
14 12 7 10 13 14 12 13 12 10 10 9 5 3 1 1 2 2 3 4 5 7 10 12 16 19 21 22 22 22 23 24 26 27 28 30 29 27 26 27 31 35 34 32
16 16 12 13 13 15 13 16 18 14 13 11 6 3 2 2 1 3 2 3 5 7 9 12 16 18 19 20 21 22 23 24 25 26 28 29 27 26 27 30 36 36 32 32
22 16 15 15 16 13 13 15 19 17 15 14 10 6 4 3 4 5 2 3 5 7 9 12 16 18 18 19 20 21 23 23 24 25 27 27 26 27 27 29 34 34 32 31
22 17 14 15 14 14 15 18 21 18 14 12 8 6 6 5 3 3 2 3 4 5 8 12 15 16 17 18 19 20 21 23 24 25 26 27 26 27 28 30 35 35 32 30
19 19 16 14 13 14 15 16 18 15 12 10 8 6 5 5 4 5 4 2 4 6 8 11 13 14 16 17 18 20 21 22 24 25 27 26 25 27 28 30 36 36 32 30
13 14 12 14 14 13 11 12 11 11 11 9 7 6 5 6 8 7 6 3 4 7 9 11 11 13 15 17 18 19 20 22 23 25 26 26 24 25 26 28 32 31 32 29
11 10 11 12 11 9 12 14 10 6 6 7 6 7 7 7 7 7 6 4 3 5 7 9 10 12 14 15 17 19 20 21 23 25 25 25 24 24 25 24 25 26 28 26
12 11 9 9 10 12 16 15 11 9 8 8 7 7 7 8 8 7 5 3 2 5 6 8 10 12 13 15 17 18 19 21 23 24 25 25 24 23 23 24 24 25 26 23
10 8 6 7 9 9 12 10 9 9 7 8 9 9 10 9 9 7 4 2 3 5 6 8 10 11 13 15 16 18 19 20 22 24 24 24 24 23 23 24 24 24 24 23
9 8 6 4 6 8 8 9 8 7 7 7 8 9 10 10 9 6 4 1 3 5 5 8 9 11 13 14 16 17 19 21 22 22 23 23 23 23 23 24 23 21 20 20
10 9 9 8 8 10 11 10 9 8 8 8 8 10 13 12 10 8 4 0 3 4 5 8 10 11 13 15 16 17 19 21 22 23 23 22 22 21 21 22 24 21 19 21
11 10 10 11 12 13 12 11 9 9 10 10 10 11 13 12 10 10 3 4 4 4 6 8 10 12 13 15 16 17 19 20 21 22 22 22 21 21 20 21 23 19 18 17
10 8 7 8 7 5 2 4 5 7 8 9 10 13 14 12 8 4 2 3 4 4 6 9 10 12 13 14 15 17 18 20 21 22 22 22 21 21 21 21 22 21 17 15
10 11 11 12 13 14 16 19 21 15 9 10 18 18 14 10 4 2 3 3 4 6 7 9 10 12 13 14 15 17 18 20 21 22 22 22 21 21 20 20 21 21 17 15
11 14 17 18 23 26 22 15 22 29 32 29 21 17 8 5 3 3 4 4 5 7 8 9 10 11 12 14 15 16 18 19 21 22 22 21 21 20 19 19 21 21 17 15
Wind_Direction
54 214 134 112 95 77 56 66 67 71 81 186 99 87 95 94 86 71 65 54 44 42 40 39 38 39 39 37 35 32 28 22 17 15 10 2 356 351 349 345 341 337 332 328
34 49 52 117 96 81 74 55 53 57 70 87 92 76 72 82 76 65 58 55 50 40 36 34 35 36 36 33 29 26 18 13 10 4 359 355 354 350 346 342 338 335 332 329
32 42 40 48 77 81 79 66 63 58 46 57 62 68 70 65 66 59 56 57 49 42 40 39 37 36 29 22 17 12 10 4 1 359 356 353 350 347 343 340 338 335 333 330
20 21 32 41 45 64 70 72 69 50 52 55 61 65 82 84 68 58 59 59 49 45 37 33 26 24 21 12 6 2 360 359 358 357 354 350 347 344 342 341 338 335 334 333
17 15 24 36 44 45 60 77 68 61 45 48 51 28 31 64 99 84 66 61 55 43 29 25 23 17 16 6 0 358 356 357 357 354 349 346 345 344 343 342 340 340 339 337
10 8 12 34 29 19 17 57 69 55 57 50 38 13 13 22 57 54 50 50 46 36 29 25 20 20 11 2 358 356 356 354 350 348 348 347 347 347 346 346 345 345 340 340
346 352 355 61 6 13 15 18 46 47 41 48 37 9 354 12 31 48 50 48 45 38 32 25 19 18 5 355 353 353 352 350 350 351 351 351 350 349 347 349 348 344 336 336
341 340 338 17 8 358 356 2 11 13 19 23 10 5 16 19 37 51 52 45 38 30 21 20 19 9 357 352 354 353 352 353 354 356 355 353 350 349 350 349 345 337 331 329
328 337 344 358 353 341 351 349 350 353 355 4 6 13 30 40 48 48 50 46 36 28 22 16 5 360 357 356 356 356 356 357 358 358 355 353 351 350 350 348 341 331 328 326
320 316 288 307 325 324 329 333 332 332 339 353 1 16 19 40 53 63 48 42 35 31 25 14 2 360 2 1 360 359 359 359 359 356 355 355 355 355 351 347 338 329 328 328
309 302 301 289 302 309 313 316 318 320 327 336 347 7 29 45 65 83 76 44 31 31 26 16 8 4 3 2 3 1 3 3 1 1 359 357 357 356 354 350 341 329 330 334
293 304 284 284 299 295 284 293 305 314 321 326 329 337 20 80 92 97 83 58 26 21 23 16 8 5 3 4 5 6 6 5 5 3 2 1 360 360 360 353 344 336 332 331
290 313 286 309 311 315 304 293 295 301 307 315 318 309 294 156 142 116 76 56 45 27 24 15 7 4 6 7 10 11 10 10 8 8 7 5 6 7 3 359 350 341 341 344
295 304 280 287 269 289 291 288 289 291 292 297 299 290 261 179 154 157 131 74 52 31 24 11 5 3 9 13 14 15 14 13 13 13 11 11 14 13 9 0 346 343 353 351
300 286 273 295 298 282 285 291 289 283 281 287 284 259 221 204 178 163 107 68 56 30 20 6 2 5 13 18 18 17 17 18 17 17 17 18 18 16 16 8 355 352 357 357
303 290 280 277 274 273 276 281 284 282 281 283 278 257 239 236 196 160 126 97 81 26 21 4 4 13 20 21 22 21 22 21 20 20 20 18 21 18 17 10 358 356 360 3
292 288 287 281 265 265 252 258 267 255 263 261 259 259 243 227 198 168 148 99 54 38 24 9 13 24 24 26 27 25 26 24 23 23 19 21 23 18 17 13 360 357 3 8
276 282 268 283 281 287 285 283 268 256 247 241 247 247 227 205 192 171 149 104 39 29 16 13 25 33 29 32 30 29 29 26 26 22 22 23 23 21 19 17 9 10 7 12
287 274 267 272 280 277 285 291 288 262 248 235 237 231 222 215 195 172 147 122 63 21 17 24 39 39 36 37 33 32 31 29 26 25 24 25 25 24 23 24 22 20 16 19
297 293 277 255 269 275 288 295 287 270 255 242 247 241 223 214 197 183 160 142 80 26 42 40 50 44 41 41 38 35 34 31 28 27 26 26 26 27 27 26 25 25 23 26
312 313 292 257 264 276 290 290 286 273 254 236 227 220 209 207 197 188 183 150 36 39 47 53 55 50 47 44 40 38 36 33 30 28 27 27 27 30 28 27 27 28 27 27
318 325 327 306 280 284 287 289 286 277 252 240 238 220 205 205 205 220 256 142 75 73 43 56 58 60 53 47 42 40 36 34 32 32 30 29 29 31 29 28 28 30 30 30
323 325 324 315 300 294 294 284 270 255 240 224 201 198 205 207 203 196 217 65 76 62 54 63 68 68 57 46 44 42 37 33 32 31 30 31 32 32 32 30 28 30 31 30
325 327 322 318 310 298 284 275 261 252 240 227 215 198 199 207 229 252 276 114 98 77 72 71 73 68 54 45 45 41 37 33 34 33 32 34 34 33 33 31 29 32 32 33
348 352 354 357 358 1 34 163 173 215 180 208 205 212 218 224 220 210 143 108 100 80 73 80 73 64 50 47 46 42 38 35 35 34 33 34 35 33 34 33 31 31 33 33
30 39 61 81 79 96 106 121 128 131 183 194 212 214 218 224 204 159 115 104 92 91 81 74 66 58 53 49 46 42 39 36 36 36 36 36 36 36 35 34 32 33 34 34
60 70 81 83 102 115 112 109 120 138 184 197 205 213 204 202 149 116 112 108 99 93 84 69 61 58 56 50 45 44 40 38 36 36 37 37 38 37 37 36 33 32 34 35